Torna al catalogo

SL-8 R/B

AttivoLEO
NORAD 11751·ROCKET BODY·🇷🇺 Russia

Lanciato Apr 3, 1980 da Plesetsk Cosmodrome

Loading…

Prossimi Passaggi (prossime 24 ore)

TLE

AggiornatoSource: Space-Track

Epoca: Sep 13, 2026, 22:16 UTC

1 11751U 80026B   26256.92832700  .00000010  00000-0  91438-4 0  9993
2 11751  65.8406  52.3341 0020675 276.2511 253.5626 13.77360332334462

Traccia SL-8 R/B in tempo reale con AllMySat

Download on the App Store